sat.trackr.live / text

‹ back to catalog

SZ-21 MODULE

NORAD 66515 · 2025-246C

PAYLOAD ACTIVE UNKNOWN

§ Identity

Operator
Country
PRC
Launch date
2025-10-31
Launch site
JSC
Launch vehicle
Mass (kg)
RCS (m²)

Purposes: station

External: N2YO · Heavens-Above · Gunter

§ Orbital elements

Epoch: 2026-05-25T04:53:49.231392Z

Period
91.47 min
Inclination
41.4727°
Eccentricity
0.0005482
Mean motion
15.74279029 rev/d
Perigee alt
343.0 km
Apogee alt
350.4 km
Semi-major
6,724.8 km
B*
2.7831e-4
RAAN
90.2489°
Arg perigee
218.1296°
Mean anomaly
141.9160°
Rev number
3,011

§ Raw data

SZ-21 MODULE1 66515U 25246C   26145.20404203  .00041241  00000+0  27831-3 0  99902 66515  41.4727  90.2489 0005482 218.1296 141.9160 15.74279029 30113

JSON: /api/v1/satellites/66515 · /tle

For live sub-satellite position, see the globe view (requires WebGL).

§ Visibility from observer

Set your observer location to see the next 7 days of passes ≥ 10°. The values pass through the URL so the page stays shareable.

No JS? Fill the form by hand. The geolocation button needs JavaScript.